Miscellaneous Local Product
Issued by NWS North Platte, NE

Home | Current Version | Previous Version | Text Only | Print | Product List | Glossary On
Versions: 1 2 3 4 5 6 7 8 9 10 11 12 13 14 15 16 17 18 19 20 21 22 23 24 25 26 27 28 29 30 31 32 33 34 35 36 37 38 39 40 41 42 43 44 45 46 47 48 49 50
000
AXUS43 KLBF 181510
MISLBF


WESTERN AND NORTH CENTRAL NEBRASKA HOURLY WEATHER ROUNDUP
NATIONAL WEATHER SERVICE NORTH PLATTE NE
900 AM CST THU JAN 18 2018

NOTE: "FAIR" INDICATES FEW OR NO CLOUDS BELOW 12,000 FEET WITH NO
SIGNIFICANT WEATHER AND/OR OBSTRUCTIONS TO VISIBILITY.

NOTE: STATIONS NOT REPORTING VARIABLES SUCH AS SKY/WEATHER OR
PRESSURE ARE PROVIDED BY RAWS AND APRS NETWORKS AND ARE NOT UNDER
NATIONAL WEATHER SERVICE QUALITY CONTROL.

...OBSERVATIONS IN AND NEAR THE EASTERN PANHANDLE OF NEBRASKA...

CITY           SKY/WX    TMP DP  RH WIND       PRES   REMARKS
PINE RIDGE     CLOUDY    35  23  61 SW7       29.97S WCI  29
GORDON         FAIR      38  23  56 W18       29.95R WCI  28
CHADRON        MOCLDY    28  21  75 SW7       29.98F WCI  21
ALLIANCE       CLOUDY    20  18  92 W13       29.99S WCI   7
SIDNEY         MOCLDY    24  18  77 W6        30.05R WCI  17
CRESCENT LAKE    N/A     31  22  69 W6          N/A  WCI  25
$$

...OBSERVATIONS IN NORTHERN NEBRASKA AND FAR SOUTHERN SOUTH DAKOTA...

CITY           SKY/WX    TMP DP  RH WIND       PRES   REMARKS
WINNER         FAIR      35  23  61 SW7       29.91R WCI  29
VALENTINE      CLOUDY    26  21  81 W9        29.93R WCI  17
AINSWORTH      MOCLDY    32  24  72 W12       29.93R WCI  23
O`NEILL        CLEAR     26  20  76 SW9       29.93S WCI  17
THEDFORD       MOCLDY    33  24  70 W8        29.97R WCI  26
BROKEN BOW     CLEAR     29  18  63 VRB5      29.97F WCI  24
ORD            CLEAR     16  12  84 CALM      29.98F
ALBION         CLOUDY    24  16  74 CALM      29.99F
VALENTINE NWR    N/A     29  20  69 W3          N/A
HALSEY           N/A     26  19  74 SW5         N/A  WCI  20
BUTTE            N/A     27  21  77 SW6         N/A  WCI  21
CHAMBERS         N/A     27  17  64 SW7         N/A  WCI  20
EWING            N/A     24  20  83 SW7         N/A  WCI  16
$$

...OBSERVATIONS IN SOUTHWEST NEBRASKA AND FAR NORTHEAST COLORADO...

CITY           SKY/WX    TMP DP  RH WIND       PRES   REMARKS
WRAY           FAIR      25  18  74 MISG      30.07R
HOLYOKE        FAIR      27  19  74 W9        30.05R WCI  17
IMPERIAL       PTCLDY    27  18  69 W10       30.05R WCI  17
OGALLALA       CLOUDY    23  19  83 W8        30.04R WCI  14
NORTH PLATTE   PTCLDY    22  17  81 NW5       30.03R WCI  16
MCCOOK         CLEAR     23  17  78 W14       30.06S WCI  11
LEXINGTON      CLEAR     20  16  84 W5        30.04S WCI  14
STAPLETON        N/A     27  21  78 CALM        N/A
GOTHENBURG       N/A     22  16  76 NW3         N/A
CALLAWAY         N/A     32  23  70 W12         N/A  WCI  23
$$

...OBSERVATIONS IN CENTRAL LINCOLN COUNTY AREA...

CITY           SKY/WX    TMP DP  RH WIND       PRES   REMARKS
N.P. AIRPORT   PTCLDY    22  17  81 NW5       30.03R WCI  16
N.P. DOWNTOWN    N/A     21  19  93 CALM        N/A
N.P. SOUTHEAST   N/A     24  20  84 CALM        N/A
N.P. HILLCREST   N/A     22  18  85 W8          N/A  WCI  13
$$

...SOME OBSERVATIONS FROM AROUND THE REGION...

CITY           SKY/WX    TMP DP  RH WIND       PRES   REMARKS
DENVER         MOCLDY    38  11  32 SW13      30.09R WCI  30
BERTHOUD PASS  FAIR      19   9  63 NW22G37   30.31S WCI   3
GRAND JUNCTION PTCLDY    19  15  84 E3        30.36R
LARAMIE        MOCLDY    31  14  49 SW15      30.15R WCI  20
CHEYENNE       PTCLDY    30  14  51 SW6       30.09R WCI  24
CASPER         CLOUDY    37  20  50 SW26G38   30.07R WCI  25
BISMARCK       CLOUDY    17  15  92 CALM      29.81F
RAPID CITY     CLOUDY    38  15  39 CALM      29.89F
PIERRE         CLOUDY    25  21  85 W3        29.89R
SIOUX FALLS    CLOUDY    16  14  92 CALM      29.94S
OMAHA          CLOUDY    16   9  74 S8        30.07F WCI   5
GRAND ISLAND   CLOUDY    21  15  78 SW7       30.04F WCI  12
SCOTTSBLUFF    PTCLDY    27  20  75 NW7       30.02S WCI  19
KANSAS CITY    CLOUDY    21   9  59 SW14      30.23S WCI   8
HILL CITY      CLOUDY    22  15  75 SW7       30.10F WCI  13
WICHITA        CLOUDY    23   8  52 S13       30.24F WCI  11
DODGE CITY     CLOUDY    22  10  60 SW9       30.14F WCI  12
OKLAHOMA CITY  CLOUDY    21   8  57 S10       30.38S WCI  10
DALLAS         MOSUNNY   26  14  60 S9        30.51S WCI  17
AMARILLO       CLOUDY    21   9  59 SW10      30.22S WCI  10
$$




USA.gov is the U.S. government's official web portal to all federal, state and local government web resources and services.